This is the latest recevied weather packets stored in our database for station/object WA2TQI. If no packets are shown the sender has not sent any weather packets the latest 1 day(s).
| Time | Temp. | Humidity | Pressure | Rain* | Wind** | Luminosity | Snow |
|---|---|---|---|---|---|---|---|
| 1836274743 | 19.44° C | 85% | 1020.1 hPa | 0 mm | 0 m/s | - | - |
| 1836274441 | 19.44° C | 85% | 1019.8 hPa | 0 mm | 0 m/s | - | - |
| 1836274294 | 18.89° C | 85% | 1020 hPa | 0 mm | 0 m/s | - | - |
| 1836274140 | 19.44° C | 83% | 1019.8 hPa | 0 mm | 0 m/s | - | - |
| 1778067451 | 18.33° C | 84% | 1011.2 hPa | 0 mm | 0.45 m/s, 129° | - | - |
| 1778067148 | 18.33° C | 84% | 1011.2 hPa | 0 mm | 1.34 m/s, 184° | - | - |
| 1778066844 | 18.33° C | 84% | 1011.3 hPa | 0 mm | 2.24 m/s, 95° | - | - |
| 1778066542 | 18.33° C | 84% | 1011.3 hPa | 0 mm | 0.89 m/s, 201° | - | - |
| 1778066240 | 18.33° C | 84% | 1011.2 hPa | 0 mm | 4.02 m/s, 203° | - | - |
| 1778065938 | 18.33° C | 84% | 1011.5 hPa | 0 mm | 0.89 m/s, 121° | - | - |
| 1778065634 | 18.33° C | 84% | 1011.4 hPa | 0 mm | 0.45 m/s, 139° | - | - |
| 1778065332 | 18.33° C | 84% | 1011.3 hPa | 0 mm | 2.68 m/s, 195° | - | - |
| 1778065028 | 17.78° C | 86% | 1011.2 hPa | 0 mm | 2.24 m/s, 205° | - | - |
| 1778064725 | 17.78° C | 86% | 1011.3 hPa | 0 mm | 2.24 m/s, 219° | - | - |
| 1778064424 | 17.78° C | 86% | 1011.2 hPa | 0 mm | 1.34 m/s, 180° | - | - |
| 1778064120 | 17.78° C | 86% | 1011.2 hPa | 0 mm | 0.45 m/s, 108° | - | - |
| 1778063817 | 17.78° C | 86% | 1011.2 hPa | 0 mm | 1.34 m/s, 204° | - | - |
| 1778063514 | 17.78° C | 87% | 1011.1 hPa | 0 mm | 2.24 m/s, 123° | - | - |
| 1778063213 | 17.78° C | 87% | 1011.2 hPa | 0 mm | 2.24 m/s, 79° | - | - |
| 1778062910 | 17.78° C | 88% | 1011.2 hPa | 0 mm | 2.68 m/s, 185° | - | - |
| 1778062606 | 17.78° C | 88% | 1011.4 hPa | 0 mm | 0.89 m/s, 206° | - | - |
| 1778062303 | 17.78° C | 88% | 1011.5 hPa | 0 mm | 1.79 m/s, 233° | - | - |
| 1778062002 | 17.78° C | 88% | 1011.4 hPa | 0 mm | 2.24 m/s, 173° | - | - |
| 1778061700 | 17.78° C | 88% | 1011.4 hPa | 0 mm | 2.68 m/s, 197° | - | - |
| 1778061398 | 17.78° C | 88% | 1011.3 hPa | 0 mm | 0.45 m/s, 177° | - | - |
* Rain latest hour (hover to see other rain measurements)
** Current wind speed in m/s (hover to see current wind gust speed)